This is the latest recevied weather packets stored in our database for station/object KO4DYK. If no packets are shown the sender has not sent any weather packets the latest 10 day(s).
| Time | Temp. | Humidity | Pressure | Rain* | Wind** | Luminosity | Snow |
|---|---|---|---|---|---|---|---|
| 1777374968 | 18.33° C | 99% | 1018.1 hPa | 0 mm | - | 0 W/m² | - |
| 1777374664 | 18.33° C | 99% | 1018.1 hPa | 0 mm | - | 0 W/m² | - |
| 1777374359 | 18.33° C | 99% | 1017.8 hPa | 0 mm | - | 0 W/m² | - |
| 1777374056 | 18.33° C | 99% | 1018 hPa | 0 mm | - | 0 W/m² | - |
| 1777373752 | 18.33° C | 99% | 1017.8 hPa | 0 mm | - | 0 W/m² | - |
| 1777373450 | 18.33° C | 99% | 1017.2 hPa | 0 mm | - | 0 W/m² | - |
| 1777373145 | 18.33° C | 99% | 1017.7 hPa | 0 mm | - | 0 W/m² | - |
| 1777372840 | 18.33° C | 99% | 1018.5 hPa | 0 mm | - | 0 W/m² | - |
| 1777372535 | 18.89° C | 99% | 1018.4 hPa | 0 mm | - | 0 W/m² | - |
| 1777372234 | 18.89° C | 99% | 1017.7 hPa | 0 mm | - | 0 W/m² | - |
| 1777371933 | 18.89° C | 99% | 1018.3 hPa | 1.78 mm | - | 0 W/m² | - |
| 1777371630 | 18.89° C | 99% | 1017.9 hPa | 1.78 mm | - | 0 W/m² | - |
| 1777371327 | 18.33° C | 99% | 1018.1 hPa | 0 mm | - | 0 W/m² | - |
| 1777371024 | 18.33° C | 99% | 1018.1 hPa | 0 mm | - | 0 W/m² | - |
| 1777370719 | 18.33° C | 99% | 1018.1 hPa | 0 mm | - | 0 W/m² | - |
| 1777370415 | 18.33° C | 99% | 1018.2 hPa | 1.27 mm | - | 0 W/m² | - |
| 1777370111 | 17.78° C | 99% | 1018.2 hPa | 1.27 mm | - | 0 W/m² | - |
| 1777369809 | 17.78° C | 99% | 1018.3 hPa | 0 mm | - | 0 W/m² | - |
| 1777369508 | 17.78° C | 99% | 1018.1 hPa | 0 mm | - | 0 W/m² | - |
| 1777369204 | 17.78° C | 99% | 1018.1 hPa | 0 mm | - | 0 W/m² | - |
| 1777368904 | 17.78° C | 99% | 1018.1 hPa | 0 mm | - | 0 W/m² | - |
| 1777368603 | 17.78° C | 99% | 1017.9 hPa | 1.78 mm | - | 0 W/m² | - |
| 1777368299 | 17.78° C | 99% | 1017.8 hPa | 3.05 mm | - | 0 W/m² | - |
| 1777367996 | 17.78° C | 99% | 1018 hPa | 6.1 mm | - | 0 W/m² | - |
| 1777367693 | 18.33° C | 99% | 1017.6 hPa | 3.05 mm | - | 0 W/m² | - |
* Rain latest hour (hover to see other rain measurements)
** Current wind speed in m/s (hover to see current wind gust speed)